This is the latest recevied weather packets stored in our database for station/object KC2G. If no packets are shown the sender has not sent any weather packets the latest 10 day(s).
| Time | Temp. | Humidity | Pressure | Rain* | Wind** | Luminosity | Snow |
|---|---|---|---|---|---|---|---|
| 1777433455 | 12.22° C | 70% | 1017.2 hPa | 0 mm | 0 m/s | - | - |
| 1777432555 | 12.22° C | 70% | 1017.2 hPa | 0 mm | 0 m/s | - | - |
| 1777432347 | 12.22° C | 68% | 1016.7 hPa | 0 mm | 0 m/s | - | - |
| 1777431655 | 12.22° C | 67% | 1016.9 hPa | 0 mm | 0 m/s | - | - |
| 1777430755 | 12.22° C | 68% | 1016.7 hPa | 0 mm | 0 m/s | - | - |
| 1777429988 | 12.22° C | 66% | 1016.7 hPa | 0 mm | 0 m/s | - | - |
| 1777429855 | 12.22° C | 66% | 1016.7 hPa | 0 mm | 0 m/s | - | - |
| 1777428955 | 12.22° C | 68% | 1017 hPa | 0 mm | 0 m/s | - | - |
| 1777428515 | 12.22° C | 66% | 1017.1 hPa | 0 mm | 0 m/s | - | - |
| 1777428055 | 12.22° C | 65% | 1017.1 hPa | 0 mm | 0 m/s | - | - |
| 1777427155 | 12.22° C | 66% | 1017.1 hPa | 0 mm | 0 m/s | - | - |
| 1777426255 | 12.78° C | 61% | 1017.1 hPa | 0 mm | 0 m/s | - | - |
| 1777425474 | 12.78° C | 59% | 1017.1 hPa | 0 mm | 0 m/s | - | - |
| 1777425355 | 12.78° C | 59% | 1017.1 hPa | 0 mm | 0 m/s | - | - |
| 1777424455 | 13.33° C | 59% | 1017.1 hPa | 0 mm | 0 m/s | - | - |
| 1777423555 | 13.33° C | 57% | 1017.1 hPa | 0 mm | 0 m/s | - | - |
| 1777422655 | 13.33° C | 55% | 1016.9 hPa | 0 mm | 0.45 m/s, 140° | - | - |
| 1777421755 | 13.89° C | 53% | 1017 hPa | 0 mm | 0.45 m/s, 168° | - | - |
| 1777420856 | 13.89° C | 52% | 1017 hPa | 0 mm | 0.45 m/s, 151° | - | - |
| 1777419955 | 13.89° C | 51% | 1017 hPa | 0 mm | 0.45 m/s, 106° | - | - |
| 1777419355 | 14.44° C | 52% | 1016.9 hPa | 0 mm | 0.45 m/s, 95° | - | - |
| 1777419056 | 14.44° C | 52% | 1016.9 hPa | 0 mm | 0.45 m/s, 95° | - | - |
| 1777418904 | 15° C | 52% | 1016.9 hPa | 0 mm | 0.45 m/s, 109° | - | - |
| 1777418155 | 14.44° C | 53% | 1017 hPa | 0 mm | 0.45 m/s, 124° | - | - |
| 1777417256 | 15° C | 52% | 1016.9 hPa | 0 mm | 0.45 m/s, 109° | - | - |
* Rain latest hour (hover to see other rain measurements)
** Current wind speed in m/s (hover to see current wind gust speed)